[[{"header":{"parameterUnit":"m.s-1","parameterCategory":1,"la1":30.2991,"la2":30.254,"lo1":-89.0895,"lo2":-89.0444,"dy":0.0017,"dx":0.0017,"nx":28,"ny":28,"refTime":"2024-08-23T09:00:00:Z","depth":0,"parameterNumber":2,"parameterNumberName":"U-component_of_WINDS"},"data":[0,0,0,0,0,0,0,0,0,0,0,0,0,0,0,0,0,0,0,0,0,0,0,0,0,0,0,0,0,0,0,0,0,0,0,0,0,0,0,0,0,0,0,0,0,0,0,0,0,0,0,0,0,0,0,0,0,0,-4.7022,-4.7024,0,-4.7252,-4.7254,-4.7257,-4.7219,-4.7215,-4.7211,-4.7207,-4.7444,-4.7454,-4.7464,0,0,0,0,0,0,0,0,0,0,0,0,0,-4.6551,-4.656,-4.7021,-4.7024,-4.7027,-4.7251,-4.7254,-4.7257,-4.7219,-4.7214,-4.721,-4.7205,-4.7441,-4.7452,-4.7465,0,0,0,0,0,0,0,0,0,0,0,0,0,-4.6766,-4.6563,-4.7021,-4.7035,-4.7039,-4.7251,-4.7254,-4.7258,-4.722,-4.7214,-4.7208,-4.7203,-4.7437,-4.7451,-4.7466,-4.7679,0,0,-4.7512,-4.7519,0,0,0,0,0,0,0,0,-4.6754,-4.6783,-4.703,-4.7034,-4.7039,-4.72,-4.7175,-4.7399,-4.7222,-4.7151,-4.7207,-4.72,-4.7368,-4.7388,-4.7444,-4.769,-4.77,-4.7513,-4.7523,-4.7529,-4.7533,0,0,0,0,0,0,0,-4.6739,-4.6773,-4.7112,-4.7034,-4.7039,-4.7031,-4.7055,-4.7218,-4.729,-4.7157,-4.7155,-4.7183,-4.7369,-4.743,-4.745,-4.7704,-4.7513,-4.7526,-4.7536,-4.7542,-4.8137,-4.8144,0,0,0,0,0,0,-4.6719,-4.6761,-4.7105,-4.7119,-4.6878,-4.7044,-4.7071,-4.7154,-4.7289,-4.7303,-4.7187,-4.718,-4.7407,-4.7432,-4.7458,-4.7717,-4.7529,-4.7543,-4.7552,-4.8131,-4.8139,-4.8146,0,0,0,0,0,0,-4.671,-4.6751,-4.7096,-4.694,-4.6983,-4.7058,-4.7153,-4.7162,-4.7223,-4.7311,-4.7324,-4.7236,-4.7404,-4.7437,-4.7625,-4.7725,-4.755,-4.7564,-4.8123,-4.8133,-4.8143,-4.8236,0,0,0,0,0,0,-4.6696,-4.6747,-4.6828,-4.6942,-4.6991,-4.7258,-4.7159,-4.7171,-4.7249,-4.7241,-4.7361,-4.7375,-4.7401,-4.7602,-4.764,-4.7742,-4.7575,-4.8114,-4.8127,-4.8139,-4.8225,-4.8248,-4.8269,0,0,0,0,0,-4.6679,-4.6845,-4.6832,-4.6874,-4.7094,-4.7264,-4.7292,-4.7319,-4.7257,-4.734,-4.7397,-4.7371,-4.7708,-4.7622,-4.7663,-4.7772,-4.8108,-4.8124,-4.8138,-4.8215,-4.8244,-4.8268,0,0,0,0,0,0,-4.6741,-4.686,-4.6847,-4.7055,-4.715,-4.7257,-4.7362,-4.7349,-4.7464,-4.7452,-4.7481,-4.7508,-4.7699,-4.7754,-4.7657,-4.7986,-4.7899,-4.7924,-4.7943,-4.7971,-4.7993,-4.7976,-4.7588,0,0,0,0,0,-4.6779,-4.6906,-4.7004,-4.7177,-4.7226,-4.7286,-4.7361,-4.7373,-4.7473,-4.7513,-4.7584,-4.7682,-4.781,-4.7894,-4.8016,-4.8232,-4.8259,-4.8328,-4.835,-4.8368,-4.8389,-4.8509,-4.8541,-4.8197,-4.8196,-4.8196,0,0,-4.6858,-4.6939,-4.7018,-4.7192,-4.7267,-4.7399,-4.732,-4.7462,-4.7561,-4.7535,-4.7717,-4.7772,-4.7884,-4.8087,-4.818,-4.8139,-4.849,-4.8387,-4.8401,-4.8412,-4.8528,-4.8561,-4.859,-4.8207,-4.8205,-4.8203,0,0,-4.707,-4.7144,-4.7297,-4.7374,-4.7489,-4.7528,-4.7565,-4.7676,-4.7712,-4.7895,-4.7878,-4.7996,-4.8216,-4.8297,-4.8366,-4.8611,-4.8593,-4.8651,-4.8766,-4.8883,-4.891,-4.8935,-4.9023,-4.9055,-4.8671,-4.8671,-4.8671,0,-4.7154,-4.7352,-4.7377,-4.7523,-4.7601,-4.7583,-4.7739,-4.7813,-4.7962,-4.8017,-4.7969,-4.8245,-4.8319,-4.8542,-4.8602,-4.8658,-4.8703,-4.8637,-4.8904,-4.8929,-4.8952,-4.9037,-4.907,-4.8678,-4.8677,-4.8676,-4.8676,0,-4.7451,-4.7588,-4.7699,-4.7843,-4.7934,-4.8084,-4.8133,-4.8221,-4.8227,-4.8272,-4.8459,-4.8547,-4.8688,-4.8742,-4.8748,-4.8967,-4.8938,-4.8897,-4.881,-4.8991,-4.9071,-4.9104,-4.8687,-4.8684,-4.8683,-4.8681,0,0,-4.7707,-4.7865,-4.7905,-4.7971,-4.8098,-4.8205,-4.8355,-4.8493,-4.8569,-4.8673,-4.88,-4.8988,-4.8951,-4.903,-4.9046,-4.9149,-4.9339,-4.9095,-4.9098,-4.9138,-4.9587,-4.9618,-4.9655,-4.9327,-4.9334,-4.9339,-4.9578,0,-4.7931,-4.8196,-4.8224,-4.8461,-4.859,-4.8576,-4.8707,-4.8799,-4.8846,-4.8962,-4.9013,-4.9146,-4.9087,-4.9135,-4.9236,-4.9294,-4.943,-4.9277,-4.9447,-4.9453,-4.942,-4.9697,-4.9729,-4.9951,-4.961,-4.9615,-4.9619,0,-4.8228,-4.8341,-4.8591,-4.8701,-4.8756,-4.8874,-4.9003,-4.9115,-4.922,-4.9246,-4.9336,-4.9339,-4.9495,-4.9402,-4.9619,-4.9515,-4.9586,-4.9626,-4.9635,-4.9652,-4.9547,-4.9722,-5.0022,-5.0056,-4.9668,-4.9664,-4.9661,0,-4.8391,-4.8606,-4.8784,-4.8841,-4.8974,-4.9057,-4.9116,-4.9215,-4.9297,-4.941,-4.9464,-4.9595,-4.9666,-4.9768,-4.9806,-4.9735,-5.0022,-4.9932,-5.0049,-5.0049,-5.0111,-5.0106,-5.0427,-5.0156,-5.0155,-5.0154,-5.0154,0,-4.8639,-4.8793,-4.8859,-4.8968,-4.9141,-4.9172,-4.9342,-4.9398,-4.9487,-4.9608,-4.9604,-4.9717,-4.9761,-4.9882,-4.9913,-5.0089,-5.0121,-5.0148,-5.0155,-5.0149,-5.0146,-5.0196,-5.0182,-5.0163,-5.0161,-5.016,-5.0158,0,-4.885,-4.8901,-4.9094,-4.9204,-4.9236,-4.9358,-4.9453,-4.9559,-4.9604,-4.9758,-4.9795,-4.9867,-5.001,-5.0058,-5.0231,-5.0252,-5.0457,-5.045,-5.0421,-5.0423,-5.0538,-5.0527,-5.0903,-5.0955,-5.0649,-5.0652,-5.0654,0,-4.9005,-4.9123,-4.9247,-4.9328,-4.939,-4.952,-4.9604,-4.964,-4.9728,-4.9858,-4.9949,-5.009,-5.0205,-5.0435,-5.0503,-5.0635,-5.0632,-5.0755,-5.0652,-5.0643,-5.0635,-5.0628,-5.0641,-5.0774,-5.0777,-5.078,-5.0782,0,-4.9276,-4.9295,-4.9416,-4.9547,-4.9647,-4.9751,-4.9852,-4.9918,-4.997,-5.0069,-5.0215,-5.0304,-5.0482,-5.0623,-5.0759,-5.0821,-5.0811,-5.0814,-5.0848,-5.0844,-5.0823,-5.0837,-5.0475,-5.0805,-5.0803,-5.0801,-5.08,-5.0799,-4.9464,-4.9569,-4.9673,-4.9808,-4.9888,-4.9983,-5.0089,-5.0148,-5.0271,-5.0417,-5.0432,-5.059,-5.0694,-5.0876,-5.0945,-5.1069,-5.1035,-5.1085,-5.1097,-5.1109,-5.1119,-5.0803,-5.1094,-5.1093,-5.1093,-5.1092,-5.1092,0,-4.9735,-4.9801,-4.9925,-5.0067,-5.0174,-5.0156,-5.0267,-5.0358,-5.0497,-5.0595,-5.0709,-5.0878,-5.1015,-5.1095,-5.1233,-5.1318,-5.1317,-5.1353,-5.1347,-5.1362,-5.1141,-5.1098,-5.1352,-5.1352,-5.1351,-5.1351,-5.1351,-5.1351,-4.9888,-5.0065,-5.0098,-5.0315,-5.0381,-5.0535,-5.0601,-5.0689,-5.0768,-5.0956,-5.1071,-5.1122,-5.1213,-5.1358,-5.1485,-5.1505,-5.1556,-5.1596,-5.1613,-5.1404,-5.1378,-5.1352,-5.1312,-5.1607,-5.1607,-5.1824,-5.1826,-5.1827]},{"header":{"parameterUnit":"m.s-1","parameterCategory":1,"la1":30.2991,"la2":30.254,"lo1":-89.0895,"lo2":-89.0444,"dy":0.0017,"dx":0.0017,"nx":28,"ny":28,"refTime":"2024-08-23T09:00:00:Z","depth":0,"parameterNumber":3,"parameterNumberName":"V-component_of_WINDS"},"data":[0,0,0,0,0,0,0,0,0,0,0,0,0,0,0,0,0,0,0,0,0,0,0,0,0,0,0,0,0,0,0,0,0,0,0,0,0,0,0,0,0,0,0,0,0,0,0,0,0,0,0,0,0,0,0,0,0,0,-3.7057,-3.7056,0,-3.7023,-3.7022,-3.7022,-3.6915,-3.6913,-3.6911,-3.6908,-3.6874,-3.6876,-3.6877,0,0,0,0,0,0,0,0,0,0,0,0,0,-3.7029,-3.703,-3.7057,-3.7056,-3.7056,-3.7023,-3.7022,-3.7022,-3.6916,-3.6913,-3.691,-3.6907,-3.6874,-3.6876,-3.6877,0,0,0,0,0,0,0,0,0,0,0,0,0,-3.7022,-3.703,-3.7057,-3.6999,-3.6993,-3.7023,-3.7022,-3.7022,-3.6916,-3.6913,-3.6909,-3.6906,-3.6873,-3.6875,-3.6877,-3.696,0,0,-3.6883,-3.6884,0,0,0,0,0,0,0,0,-3.7023,-3.7024,-3.7008,-3.7003,-3.6997,-3.6969,-3.7,-3.7001,-3.6917,-3.6946,-3.6908,-3.6904,-3.6909,-3.6908,-3.6909,-3.6959,-3.6957,-3.6883,-3.6885,-3.6885,-3.6886,0,0,0,0,0,0,0,-3.7023,-3.7024,-3.7043,-3.7008,-3.7001,-3.6974,-3.6969,-3.6999,-3.6948,-3.6943,-3.6935,-3.6932,-3.6905,-3.6908,-3.6908,-3.6957,-3.6883,-3.6885,-3.6886,-3.6887,-3.707,-3.7073,0,0,0,0,0,0,-3.7032,-3.7025,-3.7044,-3.7042,-3.7001,-3.6978,-3.6972,-3.6982,-3.6947,-3.6938,-3.6936,-3.6928,-3.6906,-3.6905,-3.6906,-3.6999,-3.6885,-3.6887,-3.6888,-3.7066,-3.707,-3.7074,0,0,0,0,0,0,-3.7032,-3.7035,-3.7046,-3.7032,-3.7031,-3.6982,-3.6994,-3.6983,-3.6985,-3.6941,-3.6932,-3.6948,-3.6903,-3.6903,-3.6947,-3.6997,-3.6888,-3.689,-3.7062,-3.7067,-3.7072,-3.7188,0,0,0,0,0,0,-3.7032,-3.7035,-3.7067,-3.7033,-3.7032,-3.7088,-3.6997,-3.6985,-3.6989,-3.6978,-3.695,-3.6942,-3.69,-3.6945,-3.6949,-3.6998,-3.6891,-3.7057,-3.7064,-3.7071,-3.718,-3.7197,-3.7212,0,0,0,0,0,-3.7031,-3.7102,-3.7069,-3.7072,-3.7071,-3.7091,-3.709,-3.7041,-3.6993,-3.7024,-3.6995,-3.6943,-3.6991,-3.695,-3.6954,-3.7004,-3.7054,-3.7062,-3.707,-3.7173,-3.7194,-3.7212,0,0,0,0,0,0,-3.7144,-3.7096,-3.706,-3.7122,-3.7111,-3.7073,-3.7111,-3.7065,-3.7068,-3.7058,-3.6997,-3.6991,-3.7043,-3.7028,-3.6983,-3.7081,-3.7013,-3.7023,-3.709,-3.7109,-3.7125,-3.7128,-3.6893,0,0,0,0,0,-3.7176,-3.7197,-3.7154,-3.7212,-3.7209,-3.7161,-3.7168,-3.713,-3.7117,-3.7112,-3.7087,-3.7076,-3.7088,-3.7098,-3.7107,-3.7176,-3.7168,-3.7213,-3.7229,-3.7242,-3.7251,-3.7286,-3.7305,-3.7102,-3.7102,-3.7101,0,0,-3.7243,-3.7219,-3.7236,-3.7234,-3.7222,-3.7244,-3.7158,-3.7186,-3.7201,-3.7117,-3.7156,-3.7137,-3.712,-3.7177,-3.7201,-3.7166,-3.7305,-3.7253,-3.7264,-3.7266,-3.7296,-3.7315,-3.7333,-3.7107,-3.7106,-3.7105,0,0,-3.7375,-3.736,-3.7406,-3.7395,-3.7376,-3.7343,-3.7354,-3.7323,-3.7306,-3.7345,-3.7281,-3.7298,-3.7321,-3.7311,-3.731,-3.7436,-3.7387,-3.744,-3.7524,-3.7559,-3.7575,-3.7588,-3.7633,-3.765,-3.7449,-3.7449,-3.745,0,-3.7461,-3.7492,-3.7436,-3.7467,-3.7468,-3.739,-3.7436,-3.7428,-3.7414,-3.7416,-3.7376,-3.7402,-3.7385,-3.7438,-3.7468,-3.747,-3.748,-3.7444,-3.7577,-3.759,-3.7602,-3.7644,-3.7661,-3.7456,-3.7455,-3.7455,-3.7454,0,-3.7597,-3.762,-3.7659,-3.7646,-3.7651,-3.769,-3.7639,-3.765,-3.7612,-3.7583,-3.7622,-3.7599,-3.7601,-3.761,-3.7574,-3.7657,-3.7636,-3.7588,-3.7518,-3.7629,-3.7667,-3.7683,-3.7465,-3.7463,-3.7461,-3.7459,0,0,-3.7803,-3.7756,-3.7772,-3.7764,-3.7736,-3.7752,-3.7786,-3.7788,-3.7798,-3.779,-3.7817,-3.7837,-3.7791,-3.7789,-3.775,-3.778,-3.788,-3.7727,-3.7725,-3.7756,-3.797,-3.8007,-3.8027,-3.7847,-3.7849,-3.7852,-3.7971,0,-3.7928,-3.7984,-3.7934,-3.7999,-3.8018,-3.7944,-3.7973,-3.7959,-3.7932,-3.7944,-3.7914,-3.7929,-3.7868,-3.7866,-3.7892,-3.7862,-3.7922,-3.7853,-3.7871,-3.7872,-3.7878,-3.8047,-3.8087,-3.8201,-3.7986,-3.7988,-3.799,0,-3.8083,-3.8081,-3.8149,-3.8114,-3.812,-3.8148,-3.8144,-3.8156,-3.8138,-3.8116,-3.8113,-3.8064,-3.8094,-3.8026,-3.8066,-3.802,-3.8024,-3.801,-3.8013,-3.8014,-3.7939,-3.8052,-3.8236,-3.8254,-3.8013,-3.8011,-3.801,0,-3.8226,-3.824,-3.8281,-3.8277,-3.8238,-3.8259,-3.8244,-3.8222,-3.8225,-3.8221,-3.8223,-3.8223,-3.8223,-3.8224,-3.8177,-3.8131,-3.8223,-3.815,-3.8206,-3.8207,-3.823,-3.8229,-3.8417,-3.8231,-3.8231,-3.8231,-3.8231,0,-3.8373,-3.8417,-3.8345,-3.8371,-3.8417,-3.8357,-3.8405,-3.8382,-3.8363,-3.8382,-3.8317,-3.8337,-3.8272,-3.8285,-3.8248,-3.8287,-3.8287,-3.827,-3.826,-3.8277,-3.8279,-3.8279,-3.8271,-3.8235,-3.8234,-3.8233,-3.8233,0,-3.8541,-3.8495,-3.8535,-3.8494,-3.8484,-3.8521,-3.8485,-3.8507,-3.8475,-3.85,-3.8503,-3.8452,-3.8463,-3.8415,-3.8419,-3.8393,-3.8452,-3.8428,-3.8458,-3.8451,-3.8509,-3.8504,-3.8705,-3.8728,-3.8527,-3.8529,-3.8531,0,-3.8638,-3.867,-3.8632,-3.864,-3.8628,-3.8641,-3.8644,-3.8585,-3.859,-3.857,-3.8595,-3.86,-3.8601,-3.8623,-3.8586,-3.8588,-3.8564,-3.8634,-3.8564,-3.8579,-3.8565,-3.8564,-3.8567,-3.8649,-3.8652,-3.8654,-3.8655,0,-3.8815,-3.879,-3.8795,-3.8793,-3.8797,-3.8792,-3.8783,-3.8793,-3.873,-3.8739,-3.8749,-3.875,-3.8752,-3.8758,-3.8752,-3.8735,-3.8686,-3.8677,-3.869,-3.8708,-3.8724,-3.8716,-3.8498,-3.8673,-3.8672,-3.867,-3.8669,-3.8669,-3.8951,-3.8975,-3.8951,-3.8959,-3.8945,-3.8938,-3.8956,-3.8925,-3.8932,-3.8929,-3.8893,-3.891,-3.8888,-3.8875,-3.8863,-3.8875,-3.8842,-3.8861,-3.8866,-3.8871,-3.8882,-3.8721,-3.8873,-3.8873,-3.8872,-3.8872,-3.8871,0,-3.9125,-3.9105,-3.9112,-3.9101,-3.9107,-3.9057,-3.9043,-3.9052,-3.9067,-3.9051,-3.9053,-3.9064,-3.9068,-3.9032,-3.9031,-3.9048,-3.9025,-3.905,-3.9049,-3.9046,-3.8911,-3.89,-3.9069,-3.9069,-3.9069,-3.9069,-3.9069,-3.9069,-3.9216,-3.9254,-3.9225,-3.9255,-3.9234,-3.925,-3.9246,-3.9238,-3.9225,-3.924,-3.9243,-3.9218,-3.9193,-3.919,-3.9193,-3.9181,-3.9185,-3.9218,-3.9199,-3.9075,-3.9055,-3.9037,-3.9027,-3.9219,-3.9219,-3.9333,-3.9334,-3.9335]}]]